LogID,LogEntryDate,LogEntryTime,LogEntrySeconds,LogNotes,AFR,STFT,CurrentLTFT,CruiseLTFT,IdleLTFT,IPW,O2Sensor2,Load,AFRMAP,LoadTiming,TimingAdv,KnockSum,RPM,IDC,Baro,MAP,Boost,OmniMAP,OmniBoost,WGDC_Active,MAF,InVVTtarget,ExVVTtarget,InVVTactual,ExVVTactual,TPS,APP,IAT,WGDCCorr,Speed,Battery,ECT,MAT,MAPCalcs,IMAPCalcs,MAFCalcs,ChosenCalc,EthanolPercent,Custom
1,2019-05-25,15:43:52.64573,0.24862,,0,-8.3984375,-9.9609375,-9.9609375,-3.515625,1.5,0,29.6875,14.7,29.6875,41,0,2804.6875,3.505859375,14.28621739,7.6224651,-6.66375229,9.25485,-5.03136739,0,1.882368,15.625,-10,15,-10.46875,20,18.7176470588235,93.2,0,31.075,14.29935,183.2,104,40.625,0,32.8125,31.25,78.8235294117647,
2,2019-05-25,15:43:52.67710,0.27594,,0,-8.3984375,-9.9609375,-9.9609375,-3.515625,1.5,0,31.25,14.7,31.25,41,0,2812.5,3.515625,14.28621739,7.6224651,-6.66375229,9.25485,-5.03136739,0,1.882368,15.625,-10,15,-10.46875,20,18.7176470588235,93.2,0,31.075,14.29935,183.2,104,42.1875,0,32.8125,31.25,78.8235294117647,
3,2019-05-25,15:43:52.70825,0.30546,,0,-8.3984375,-9.9609375,-9.9609375,-3.515625,1.5,0,31.25,14.7,31.25,40,0,2812.5,3.515625,14.28621739,7.9119258,-6.37429159,9.6063,-4.67991739,0,1.86276,15.625,-10,15,-10.46875,20,18.7176470588235,93.2,0,31.075,14.29935,183.2,104,42.1875,0,32.8125,31.25,78.8235294117647,
4,2019-05-25,15:43:52.72398,0.33067,,14.8911,-8.7890625,-9.9609375,-9.9609375,-3.515625,1.5,0,31.25,14.7,31.25,40,0,2812.5,3.515625,14.28621739,7.9119258,-6.37429159,9.6063,-4.67991739,0,1.86276,16.25,-10,15.15625,-10.625,20,18.7176470588235,93.2,0,31.075,14.29935,183.2,104,42.1875,0,32.8125,31.25,78.8235294117647,
5,2019-05-25,15:43:52.77084,0.37034,,14.8911,-8.7890625,-9.9609375,-9.9609375,-3.515625,1.5,0,32.8125,14.7,32.8125,40,0,2812.5,3.515625,14.28621739,8.0084127,-6.27780469,9.72345,-4.56276739,0,1.882368,16.25,-10,15.15625,-10.625,20,18.7176470588235,93.2,0,31.075,14.29935,183.2,104,42.1875,0,31.25,31.25,78.8235294117647,
6,2019-05-25,15:43:52.80194,0.40529,,14.8911,-8.7890625,-9.9609375,-9.9609375,-3.515625,1.5,0,31.25,14.7,31.25,40,0,2828.125,3.53515625,14.28621739,8.0084127,-6.27780469,9.72345,-4.56276739,0,1.882368,16.25,-10,15.15625,-10.78125,20,18.7176470588235,93.2,0,31.075,14.22602,183.2,104,42.1875,0,31.25,31.25,78.8235294117647,
7,2019-05-25,15:43:52.83318,0.43674,,14.8911,-8.7890625,-9.9609375,-9.9609375,-3.515625,1.6,0,31.25,14.7,32.8125,40,0,2828.125,3.77083333333333,14.28621739,8.0084127,-6.27780469,9.72345,-4.56276739,0,1.843152,16.25,-10,15.15625,-10.78125,20,18.7176470588235,93.2,0,31.075,14.22602,183.2,104,42.1875,0,32.8125,32.8125,78.8235294117647,
8,2019-05-25,15:43:52.86456,0.46551,,14.8911,-8.7890625,-9.9609375,-9.9609375,-3.515625,1.6,0,32.8125,14.7,32.8125,40,0,2812.5,3.75,14.28621739,8.0084127,-6.27780469,9.72345,-4.56276739,0,1.843152,16.25,-10,15.46875,-10.625,20,18.7176470588235,93.2,0,31.075,14.22602,183.2,104,42.1875,0,31.25,31.25,78.8235294117647,
9,2019-05-25,15:43:52.91141,0.50811,,15.0528,-8.7890625,-9.9609375,-9.9609375,-3.515625,1.6,0,31.25,14.7,31.25,40,0,2820.3125,3.76041666666667,14.35873626,8.0084127,-6.35032356,9.72345,-4.63528626,0,1.901976,16.25,-10,15.46875,-10.625,20,18.7176470588235,93.2,0,31.075,14.29935,183.2,104,42.1875,0,31.25,31.25,78.8235294117647,
10,2019-05-25,15:43:52.94253,0.5453,,15.0528,-8.203125,-9.9609375,-9.9609375,-3.515625,1.5,0,31.25,14.7,31.25,40,0,2835.9375,3.544921875,14.35873626,8.0084127,-6.35032356,9.72345,-4.63528626,0,1.901976,16.25,-10,15.46875,-10.9375,20,18.7176470588235,93.2,0,31.075,14.29935,183.2,104,42.1875,0,31.25,31.25,78.8235294117647,
11,2019-05-25,15:43:52.97378,0.56918,,15.0528,-8.203125,-9.9609375,-9.9609375,-3.515625,1.5,0,31.25,14.7,31.25,40,0,2835.9375,3.544921875,14.28621739,8.0084127,-6.27780469,9.72345,-4.56276739,0,1.843152,16.25,-10,15.46875,-10.9375,20,18.7176470588235,93.2,0,31.075,14.29935,183.2,104,42.1875,0,31.25,31.25,78.8235294117647,
12,2019-05-25,15:43:53.00515,0.59919,,15.0528,-8.203125,-9.9609375,-9.9609375,-3.515625,1.6,0,31.25,14.7,31.25,40,0,2828.125,3.77083333333333,14.28621739,8.0084127,-6.27780469,9.72345,-4.56276739,0,1.843152,16.25,-10,15.46875,-10.625,20,18.7176470588235,93.2,0,31.075,14.29935,183.2,104,42.1875,0,31.25,31.25,78.8235294117647,
13,2019-05-25,15:43:53.02064,0.62455,,15.0528,-7.8125,-9.9609375,-9.9609375,-3.515625,1.6,0,31.25,14.7,31.25,40,0,2828.125,3.77083333333333,14.28621739,8.0084127,-6.27780469,9.72345,-4.56276739,0,1.86276,16.25,-10,15.46875,-10.625,20,18.7176470588235,93.2,0,31.075,14.29935,183.2,104,42.1875,0,32.8125,31.25,78.8235294117647,
14,2019-05-25,15:43:53.05196,0.64628,,15.5673,-7.8125,-9.9609375,-9.9609375,-3.515625,1.6,0,31.25,14.7,31.25,40,0,2828.125,3.77083333333333,14.28621739,8.0084127,-6.27780469,9.72345,-4.56276739,0,1.86276,16.25,-10,15.625,-10.625,20.3921568627451,19.2235294117647,93.2,0,31.075,14.29935,183.2,104,42.1875,0,34.375,32.8125,78.8235294117647,
15,2019-05-25,15:43:53.08313,0.689,,15.5673,-7.8125,-9.9609375,-9.9609375,-3.515625,1.6,0,32.8125,14.7,32.8125,40,0,2835.9375,3.78125,14.28621739,8.1048996,-6.18131779,9.8406,-4.44561739,0,1.921584,16.25,-10,15.625,-10.625,20.3921568627451,19.2235294117647,93.2,0,31.075,14.22602,183.2,104,43.75,0,32.8125,32.8125,78.8235294117647,
16,2019-05-25,15:43:53.11437,0.71911,,15.5673,-7.421875,-9.9609375,-9.9609375,-3.515625,1.6,0,32.8125,14.7,32.8125,40,0,2843.75,3.79166666666667,14.28621739,8.1048996,-6.18131779,9.8406,-4.44561739,0,1.921584,16.875,-10,15.46875,-10.78125,20.3921568627451,19.2235294117647,93.2,0,31.075,14.22602,183.2,104,43.75,0,32.8125,32.8125,78.8235294117647,
17,2019-05-25,15:43:53.14574,0.73978,,15.5673,-7.421875,-9.9609375,-9.9609375,-3.515625,1.6,0,32.8125,14.7,32.8125,40,0,2843.75,3.79166666666667,14.28621739,8.1048996,-6.18131779,9.8406,-4.44561739,0,1.901976,16.875,-10,15.46875,-10.78125,20.3921568627451,19.2235294117647,93.2,0,31.075,14.22602,183.2,104,43.75,0,32.8125,32.8125,78.8235294117647,
18,2019-05-25,15:43:53.16123,0.76432,,15.5673,-7.421875,-9.9609375,-9.9609375,-3.515625,1.6,0,32.8125,14.7,32.8125,40,0,2835.9375,3.78125,14.28621739,8.1048996,-6.18131779,9.8406,-4.44561739,0,1.901976,16.875,-10,15.9375,-10.625,20.3921568627451,19.2235294117647,93.2,0,31.075,14.22602,183.2,104,43.75,0,32.8125,32.8125,78.8235294117647,
19,2019-05-25,15:43:53.19248,0.79436,,15.5673,-7.03125,-9.9609375,-9.9609375,-3.515625,1.6,0,32.8125,14.7,32.8125,40,0,2835.9375,3.78125,14.28621739,8.2978734,-5.98834399,10.0749,-4.21131739,0,1.823544,16.875,-10,15.9375,-10.625,20.3921568627451,19.2235294117647,93.2,0,31.075,14.22602,183.2,104,43.75,0,32.8125,32.8125,78.8235294117647,
20,2019-05-25,15:43:53.22372,0.82443,,15.4056,-7.03125,-9.9609375,-9.9609375,-3.515625,1.6,0,32.8125,14.7,32.8125,40,0,2851.5625,3.80208333333333,14.28621739,8.2978734,-5.98834399,10.0749,-4.21131739,0,1.823544,16.875,-10,15.9375,-10.78125,20.3921568627451,19.2235294117647,93.2,0,31.075,14.22602,183.2,104,43.75,0,32.8125,32.8125,78.8235294117647,
21,2019-05-25,15:43:53.23950,0.84454,,15.4056,-7.03125,-9.9609375,-9.9609375,-3.515625,1.6,0,32.8125,14.7,32.8125,40,0,2851.5625,3.80208333333333,14.28621739,8.2978734,-5.98834399,10.0749,-4.21131739,0,1.901976,16.875,-10,15.9375,-10.78125,20.3921568627451,19.2235294117647,93.2,0,31.075,14.22602,183.2,104,43.75,0,32.8125,32.8125,78.8235294117647,
22,2019-05-25,15:43:53.27058,0.86612,,15.4056,-6.640625,-9.9609375,-9.9609375,-3.515625,1.6,0,32.8125,14.7,32.8125,40,0,2851.5625,3.80208333333333,14.28621739,8.2978734,-5.98834399,10.0749,-4.21131739,0,1.901976,16.875,-10,16.09375,-10.78125,20.3921568627451,19.2235294117647,93.2,0,31.075,14.22602,183.2,104,43.75,0,32.8125,32.8125,78.8235294117647,
23,2019-05-25,15:43:53.28621,0.88975,,15.4056,-6.640625,-9.9609375,-9.9609375,-3.515625,1.6,0,32.8125,14.7,32.8125,40,0,2851.5625,3.80208333333333,14.28621739,8.2013865,-6.08483089,9.95775,-4.32846739,0,1.901976,16.875,-10,16.09375,-10.78125,20.3921568627451,19.2235294117647,93.2,0,31.075,14.22602,183.2,104,43.75,0,31.25,32.8125,78.8235294117647,
24,2019-05-25,15:43:53.31748,0.91609,,15.4056,-6.640625,-9.9609375,-9.9609375,-3.515625,1.6,0,32.8125,14.7,32.8125,40,0,2843.75,3.79166666666667,14.28621739,8.2013865,-6.08483089,9.95775,-4.32846739,0,1.901976,16.875,-10,16.25,-10.78125,20.3921568627451,19.2235294117647,93.2,0,31.075,14.29935,183.2,104,43.75,0,34.375,32.8125,78.8235294117647,
25,2019-05-25,15:43:53.34871,0.94859,,15.4056,-6.25,-9.9609375,-9.9609375,-3.515625,1.6,0,32.8125,14.7,32.8125,40,0,2851.5625,3.80208333333333,14.28621739,8.2013865,-6.08483089,9.95775,-4.32846739,0,1.823544,16.875,-10,16.25,-10.78125,20.3921568627451,19.2235294117647,93.2,0,31.075,14.29935,183.2,104,43.75,0,31.25,32.8125,78.8235294117647,
26,2019-05-25,15:43:53.36431,0.97373,,15.4056,-6.25,-9.9609375,-9.9609375,-3.515625,1.6,0,32.8125,14.7,32.8125,40,0,2859.375,3.8125,14.28621739,8.2013865,-6.08483089,9.95775,-4.32846739,0,1.823544,16.875,-10,16.09375,-10.78125,20.3921568627451,19.2235294117647,93.2,0,31.075,14.29935,183.2,104,43.75,0,32.8125,32.8125,78.8235294117647,
27,2019-05-25,15:43:53.39556,1.00084,,14.9646,-6.25,-9.9609375,-9.9609375,-3.515625,1.6,0,32.8125,14.7,32.8125,40,0,2859.375,3.8125,14.28621739,8.2978734,-5.98834399,10.0749,-4.21131739,0,1.843152,16.875,-10,16.09375,-10.78125,20.3921568627451,19.2235294117647,93.2,0,31.075,14.29935,183.2,104,43.75,0,32.8125,32.8125,78.8235294117647,
28,2019-05-25,15:43:53.42686,1.02457,,14.9646,-5.859375,-9.9609375,-9.9609375,-3.515625,1.6,0,32.8125,14.7,32.8125,40,0,2859.375,3.8125,14.28621739,8.2978734,-5.98834399,10.0749,-4.21131739,0,1.843152,16.875,-10,16.09375,-10.625,20.3921568627451,19.2235294117647,93.2,0,31.075,14.29935,183.2,104,43.75,0,32.8125,32.8125,78.8235294117647,
29,2019-05-25,15:43:53.44242,1.04952,,14.9646,-5.859375,-9.9609375,-9.9609375,-3.515625,1.6,0,32.8125,14.7,32.8125,40,0,2859.375,3.8125,14.35873626,8.2978734,-6.06086286,10.0749,-4.28383626,0,1.921584,16.875,-10,16.09375,-10.625,20.3921568627451,19.2235294117647,93.2,0,31.075,14.29935,183.2,104,43.75,0,32.8125,32.8125,78.8235294117647,
30,2019-05-25,15:43:53.47380,1.0745,,14.9646,-5.859375,-9.9609375,-9.9609375,-3.515625,1.6,0,32.8125,14.7,32.8125,40,0,2867.1875,3.82291666666667,14.35873626,8.2978734,-6.06086286,10.0749,-4.28383626,0,1.921584,16.875,-10,16.25,-10.625,20.3921568627451,19.2235294117647,93.2,0,31.075,14.29935,183.2,104,43.75,0,34.375,32.8125,78.8235294117647,
31,2019-05-25,15:43:53.50490,1.10574,,14.9646,-5.6640625,-9.9609375,-9.9609375,-3.515625,1.6,0,32.8125,14.7,32.8125,40,0,2867.1875,3.82291666666667,14.28621739,8.2013865,-6.08483089,9.95775,-4.32846739,0,1.921584,16.875,-10,16.25,-10.625,20.3921568627451,19.2235294117647,93.2,0,31.075,14.29935,183.2,104,43.75,0,34.375,32.8125,78.8235294117647,
32,2019-05-25,15:43:53.52052,1.12442,,14.9646,-5.6640625,-9.9609375,-9.9609375,-3.515625,1.6,0,32.8125,14.7,32.8125,40,0,2867.1875,3.82291666666667,14.28621739,8.2013865,-6.08483089,9.95775,-4.32846739,0,1.921584,16.875,-10,16.09375,-10.78125,20.3921568627451,19.2235294117647,91.4,0,31.075,14.29935,183.2,104,43.75,0,32.8125,32.8125,78.8235294117647,
33,2019-05-25,15:43:53.55177,1.14937,,14.7441,-5.6640625,-9.9609375,-9.9609375,-3.515625,1.6,0,32.8125,14.7,32.8125,40,0,2867.1875,3.82291666666667,14.28621739,8.2013865,-6.08483089,9.95775,-4.32846739,0,1.823544,16.875,-10,16.09375,-10.78125,20.3921568627451,19.2235294117647,91.4,0,31.075,14.29935,183.2,104,43.75,0,31.25,32.8125,78.8235294117647,
34,2019-05-25,15:43:53.56739,1.17342,,14.7441,-6.0546875,-9.9609375,-9.9609375,-3.515625,1.6,0,32.8125,14.7,32.8125,40,0,2867.1875,3.82291666666667,14.28621739,8.2013865,-6.08483089,9.95775,-4.32846739,0,1.823544,16.875,-10,16.25,-10.625,20.3921568627451,19.2235294117647,91.4,0,31.075,14.29935,183.2,104,43.75,0,32.8125,32.8125,78.8235294117647,
35,2019-05-25,15:43:53.59879,1.19329,,14.7441,-6.0546875,-9.9609375,-9.9609375,-3.515625,1.6,0,32.8125,14.7,32.8125,40,0,2867.1875,3.82291666666667,14.28621739,8.2013865,-6.08483089,9.95775,-4.32846739,0,1.843152,16.875,-10,16.25,-10.625,20.3921568627451,19.2235294117647,93.2,0,31.075,14.29935,183.2,104,43.75,0,32.8125,32.8125,78.8235294117647,
36,2019-05-25,15:43:53.61425,1.21932,,14.7441,-6.0546875,-9.9609375,-9.9609375,-3.515625,1.6,0,32.8125,14.7,32.8125,41,0,2875,3.83333333333333,14.28621739,8.2013865,-6.08483089,9.95775,-4.32846739,0,1.843152,16.875,-10,16.09375,-10.78125,20.3921568627451,19.2235294117647,93.2,0,31.075,14.29935,183.2,104,43.75,0,32.8125,32.8125,78.8235294117647,
37,2019-05-25,15:43:53.66127,1.25815,,14.7441,-6.25,-9.9609375,-9.9609375,-3.515625,1.6,0,32.8125,14.7,32.8125,41,0,2890.625,3.85416666666667,14.28621739,8.2978734,-5.98834399,10.0749,-4.21131739,0,1.921584,16.875,-10,16.09375,-10.78125,20.3921568627451,19.2235294117647,93.2,0,31.075,14.29935,183.2,104,43.75,0,32.8125,32.8125,78.8235294117647,
38,2019-05-25,15:43:53.67674,1.28423,,14.7441,-6.25,-9.9609375,-9.9609375,-3.515625,1.6,0,32.8125,14.7,32.8125,41,0,2882.8125,3.84375,14.28621739,8.2978734,-5.98834399,10.0749,-4.21131739,0,1.921584,16.875,-10,16.09375,-10.78125,20.3921568627451,20.2352941176471,93.2,0,31.075,14.29935,183.2,104,43.75,0,32.8125,32.8125,78.8235294117647,
39,2019-05-25,15:43:53.70798,1.31682,,14.406,-6.25,-9.9609375,-9.9609375,-3.515625,1.6,0,32.8125,14.7,32.8125,41,0,2875,3.83333333333333,14.28621739,8.2978734,-5.98834399,10.0749,-4.21131739,0,1.980408,16.875,-10,16.09375,-10.78125,20.3921568627451,20.2352941176471,93.2,0,31.075,14.29935,183.2,104,43.75,0,35.9375,32.8125,78.8235294117647,
40,2019-05-25,15:43:53.75484,1.35409,,14.406,-6.640625,-9.9609375,-9.9609375,-3.515625,1.6,0,34.375,14.7,34.375,41,0,2882.8125,3.84375,14.28621739,8.2978734,-5.98834399,10.0749,-4.21131739,0,1.980408,18.125,-10,16.25,-10.78125,20.3921568627451,20.2352941176471,93.2,0,31.075,14.29935,183.2,104,45.3125,0,48.4375,37.5,78.8235294117647,
41,2019-05-25,15:43:53.80184,1.40414,,14.406,-6.640625,-9.9609375,-9.9609375,-3.515625,1.8,0,37.5,14.7,39.0625,40,0,2890.625,4.3359375,14.35873626,10.3240983,-4.03463796,12.53505,-1.82368626,0,2.235312,18.125,-10,16.25,-10.78125,30.1960784313725,34.9058823529412,93.2,0,31.075,14.29935,183.2,104,53.125,0,73.4375,48.4375,78.8235294117647,
42,2019-05-25,15:43:53.84872,1.44375,,14.406,-6.640625,-9.9609375,-9.9609375,-3.515625,2.3,0,51.5625,14.7,56.25,37,0,2921.875,5.60026041666667,14.35873626,10.3240983,-4.03463796,12.53505,-1.82368626,0,2.235312,26.25,-10,17.5,-10.78125,30.1960784313725,34.9058823529412,93.2,0,31.075,14.22602,183.2,104,70.3125,0,82.8125,64.0625,78.8235294117647,
43,2019-05-25,15:43:53.89544,1.49885,,14.4354,-7.03125,-9.9609375,-9.9609375,-3.515625,2.6,0,64.0625,14.7,65.625,35,0,2953.125,6.3984375,14.28621739,14.0870874,-0.199129989999999,17.1039,2.81768261,0,2.392176,26.25,-10,17.5,-10.78125,30.1960784313725,34.9058823529412,93.2,0,31.075,14.22602,183.2,104,84.375,0,81.25,73.4375,78.4313725490196,
44,2019-05-25,15:43:53.94240,1.53978,,14.4354,-7.03125,-9.9609375,-9.9609375,-3.515625,2.7,0,73.4375,14.7,75,30,0,2921.875,6.57421875,14.28621739,14.0870874,-0.199129989999999,17.1039,2.81768261,0,2.392176,23.75,-3.125,24.6875,-8.125,58.0392156862745,63.7411764705882,93.2,0,31.075,14.22602,183.2,104,87.5,0,76.5625,76.5625,78.8235294117647,
45,2019-05-25,15:43:53.98916,1.58619,,14.4354,-7.03125,-9.9609375,-9.9609375,-3.515625,2.7,0,76.5625,14.7,76.5625,29,0,2898.4375,6.521484375,14.28621739,14.5695219,0.283304510000001,17.68965,3.40343261,2,2.666688,23.75,-3.125,24.6875,-8.125,58.0392156862745,63.7411764705882,93.2,0,31.075,14.22602,183.2,104,89.0625,0,79.6875,78.125,78.4313725490196,
46,2019-05-25,15:43:54.02041,1.62856,,14.4354,0,-9.9609375,-9.9609375,-3.515625,3.1,0,78.125,14.7,78.125,28,0,2921.875,7.54817708333333,14.28621739,14.5695219,0.283304510000001,17.68965,3.40343261,2,2.666688,25,-5,24.21875,-4.21875,58.0392156862745,63.7411764705882,93.2,0,31.075,14.22602,183.2,104,90.625,0,81.25,78.125,78.4313725490196,
47,2019-05-25,15:43:54.06728,1.66626,,13.6122,0,-9.9609375,-9.9609375,-3.515625,3.1,0,78.125,14.7,78.125,29,0,2992.1875,7.72981770833333,14.28621739,14.6660088,0.379791410000001,17.8068,3.52058261,24.5,2.607864,25,-5,24.21875,-4.21875,86.2745098039216,99.1529411764706,93.2,0,31.075,14.22602,183.2,104,90.625,0,84.375,79.6875,78.4313725490196,
48,2019-05-25,15:43:54.09851,1.70377,,13.6122,0,-9.9609375,-9.9609375,-3.515625,3.2,0,79.6875,14.7,79.6875,28,0,3007.8125,8.02083333333333,14.28621739,14.6660088,0.379791410000001,17.8068,3.52058261,24.5,2.607864,23.125,-4.375,24.21875,-3.90625,86.2745098039216,99.1529411764706,93.2,0,31.075,14.29935,183.2,104,92.1875,0,81.25,81.25,78.4313725490196,
49,2019-05-25,15:43:54.14545,1.74622,,13.6122,0,-9.9609375,-9.9609375,-3.515625,3.2,0,81.25,14.7,81.25,28,0,2960.9375,7.89583333333333,14.28621739,14.8589826,0.57276521,18.0411,3.75488261,24.5,2.509824,23.125,-4.375,24.21875,-3.90625,86.2745098039216,99.1529411764706,93.2,0,31.075,14.29935,183.2,104,92.1875,0,79.6875,81.25,78.4313725490196,
50,2019-05-25,15:43:54.17672,1.77256,,13.6122,0,-9.9609375,-9.9609375,-3.515625,3.1,0,81.25,14.7,81.25,28,0,2960.9375,7.64908854166667,14.28621739,14.8589826,0.57276521,18.0411,3.75488261,24.5,2.509824,23.125,-4.375,24.0625,-4.375,87.4509803921569,100.164705882353,93.2,0,31.075,14.29935,183.2,104,92.1875,0,87.5,81.25,78.4313725490196,
51,2019-05-25,15:43:54.22348,1.81936,,15.8025,0,-9.9609375,-9.9609375,-3.515625,3.2,0,81.25,14.5860465116279,81.25,27,0,2992.1875,7.97916666666667,14.35873626,14.9554695,0.596733239999999,18.15825,3.79951374,24.5,2.509824,23.125,-4.375,24.0625,-4.375,87.4509803921569,100.164705882353,93.2,0,31.075,14.29935,183.2,104,92.1875,0,87.5,82.8125,78.4313725490196,
52,2019-05-25,15:43:54.25473,1.85445,,15.8025,0,-9.9609375,-9.9609375,-3.515625,3.3,0,84.375,14.5860465116279,84.375,27,0,3031.25,8.3359375,14.35873626,14.9554695,0.596733239999999,18.15825,3.79951374,24.5,2.509824,23.75,-5.625,23.59375,-4.84375,87.4509803921569,100.164705882353,93.2,0,31.075,14.29935,183.2,104,93.75,0,85.9375,85.9375,78.4313725490196,
53,2019-05-25,15:43:54.30168,1.89816,,15.8025,0,-9.9609375,-9.9609375,-3.515625,3.3,0,85.9375,14.5860465116279,85.9375,26,0,3015.625,8.29296875,14.28621739,15.0519564,0.765739010000001,18.2754,3.98918261,24.5,2.607864,23.75,-5.625,23.59375,-4.84375,87.4509803921569,100.670588235294,93.2,0,31.075,14.29935,183.2,104,93.75,0,85.9375,85.9375,78.4313725490196,
54,2019-05-25,15:43:54.33283,1.92808,,15.8025,0,-9.9609375,-9.9609375,-3.515625,3.3,0,85.9375,14.5860465116279,85.9375,26,0,3007.8125,8.271484375,14.28621739,15.0519564,0.765739010000001,18.2754,3.98918261,24.5,2.607864,23.125,-5.625,23.75,-5.46875,87.4509803921569,100.670588235294,93.2,0,33.561,14.29935,183.2,104,93.75,0,89.0625,85.9375,78.4313725490196,
55,2019-05-25,15:43:54.36408,1.96934,,15.8025,0,-9.9609375,-9.9609375,-3.515625,3.3,0,87.5,14.5860465116279,87.5,26,0,3039.0625,8.357421875,14.28621739,15.2449302,0.958712810000002,18.5097,4.22348261,24.5,2.607864,23.125,-5.625,23.75,-5.46875,87.4509803921569,100.670588235294,93.2,0,33.561,14.29935,183.2,104,95.3125,0,89.0625,87.5,78.4313725490196,
56,2019-05-25,15:43:54.41094,2.00805,,15.2145,0,-9.9609375,-9.9609375,-3.515625,3.4,0,87.5,14.4738461538462,89.0625,25,0,3062.5,8.67708333333333,14.28621739,15.2449302,0.958712810000002,18.5097,4.22348261,24.5,2.607864,23.75,-6.25,23.59375,-5.9375,87.4509803921569,100.670588235294,93.2,0,33.561,14.29935,183.2,104,95.3125,0,89.0625,89.0625,78.4313725490196,
57,2019-05-25,15:43:54.45781,2.05181,,15.2145,0,-9.9609375,-9.9609375,-3.515625,3.4,0,89.0625,14.4738461538462,90.625,24,0,3078.125,8.72135416666667,14.28621739,15.3414171,1.05519971,18.62685,4.34063261,24.5,2.627472,23.75,-6.25,23.59375,-5.9375,87.4509803921569,100.670588235294,93.2,0,33.561,14.37268,183.2,104,95.3125,0,93.75,90.625,78.4313725490196,
58,2019-05-25,15:43:54.48905,2.0841,,15.2145,0,-9.9609375,-9.9609375,-3.515625,3.4,0,90.625,14.4738461538462,90.625,24,0,3085.9375,8.74348958333333,14.28621739,15.3414171,1.05519971,18.62685,4.34063261,24.5,2.627472,23.75,-5.625,23.75,-6.40625,87.4509803921569,100.670588235294,93.2,0,33.561,14.37268,183.2,104,96.875,0,93.75,92.1875,78.4313725490196,
59,2019-05-25,15:43:54.52029,2.12923,,15.2145,0,-9.9609375,-9.9609375,-3.515625,3.5,0,92.1875,14.363358778626,92.1875,23,0,3078.125,8.97786458333333,14.28621739,15.5343909,1.24817351,18.86115,4.57493261,24.5,2.568648,23.75,-5.625,23.75,-6.40625,87.4509803921569,100.670588235294,91.4,0,33.561,14.37268,183.2,104,96.875,0,95.3125,93.75,78.4313725490196,
60,2019-05-25,15:43:54.56715,2.16413,,14.7441,0,-9.9609375,-9.9609375,-3.515625,3.5,0,93.75,14.363358778626,93.75,23,0,3109.375,9.06901041666667,14.28621739,15.5343909,1.24817351,18.86115,4.57493261,24.5,2.568648,25,-6.25,23.75,-6.71875,87.4509803921569,100.670588235294,91.4,0,33.561,14.29935,183.2,104,98.4375,0,98.4375,95.3125,78.4313725490196,
61,2019-05-25,15:43:54.61415,2.20877,,14.7441,0,-9.9609375,-9.9609375,-3.515625,3.6,0,95.3125,14.363358778626,96.875,23,0,3132.8125,9.3984375,14.35873626,15.6308778,1.27214154,18.9783,4.61956374,24.5,2.392176,25,-6.25,23.75,-6.71875,87.4509803921569,100.670588235294,91.4,0,33.561,14.29935,183.2,104,98.4375,0,100,96.875,78.4313725490196,
62,2019-05-25,15:43:54.64539,2.24648,,14.7441,0,-9.9609375,-9.9609375,-3.515625,3.6,0,96.875,14.2545454545455,98.4375,22,0,3132.8125,9.3984375,14.35873626,15.6308778,1.27214154,18.9783,4.61956374,24.5,2.392176,25,-5,24.375,-6.71875,87.4509803921569,100.670588235294,91.4,0,33.561,14.29935,183.2,104,100,0,100,98.4375,78.4313725490196,
63,2019-05-25,15:43:54.69227,2.28629,,14.7441,0,-9.9609375,-9.9609375,-3.515625,3.7,0,98.4375,14.2545454545455,98.4375,22,0,3140.625,9.68359375,14.35873626,15.9203385,1.56160224,19.32975,4.97101374,24.5,2.666688,25,-5,24.375,-6.71875,87.4509803921569,100.670588235294,91.4,0,33.561,14.29935,183.2,104,100,0,103.125,100,78.4313725490196,
64,2019-05-25,15:43:54.72337,2.32292,,14.6706,0,-9.9609375,-9.9609375,-3.515625,3.7,0,100,14.2545454545455,100,20,0,3164.0625,9.755859375,14.35873626,15.9203385,1.56160224,19.32975,4.97101374,24.5,2.666688,26.875,-6.875,24.6875,-6.875,87.4509803921569,100.670588235294,91.4,0,33.561,14.29935,183.2,104,101.5625,0,104.6875,101.5625,78.4313725490196,
65,2019-05-25,15:43:54.75464,2.35867,,14.6706,0,-9.9609375,-9.9609375,-3.515625,3.7,0,100,14.2545454545455,101.5625,20,0,3187.5,9.828125,14.35873626,16.0168254,1.65808914,19.4469,5.08816374,24.5,2.607864,26.875,-6.875,24.6875,-6.875,87.4509803921569,100.670588235294,91.4,0,33.561,14.29935,183.2,104,101.5625,0,104.6875,101.5625,78.4313725490196,
66,2019-05-25,15:43:54.78585,2.39352,,14.6706,0,-9.9609375,-9.9609375,-3.515625,3.7,0,101.5625,14.1473684210526,101.5625,20,0,3179.6875,9.80403645833333,14.35873626,16.0168254,1.65808914,19.4469,5.08816374,24.5,2.607864,26.25,-6.875,25.625,-6.40625,87.4509803921569,100.670588235294,91.4,0,33.561,14.29935,181.4,104,103.125,0,106.25,103.125,78.4313725490196,
67,2019-05-25,15:43:54.83272,2.4352,,14.6706,0,-9.9609375,-9.9609375,-3.515625,3.7,0,103.125,14.1473684210526,103.125,20,0,3164.0625,9.755859375,14.28621739,16.2097992,1.92358181,19.6812,5.39498261,24.5,2.509824,26.25,-6.875,25.625,-6.40625,87.4509803921569,100.670588235294,91.4,0,33.561,14.29935,181.4,104,103.125,0,109.375,103.125,78.4313725490196,
68,2019-05-25,15:43:54.86410,2.46584,,14.553,0,-9.9609375,-9.9609375,-3.515625,3.8,0,103.125,14.1473684210526,103.125,20,0,3195.3125,10.1184895833333,14.28621739,16.2097992,1.92358181,19.6812,5.39498261,24.5,2.509824,27.5,-8.125,26.09375,-7.1875,87.4509803921569,100.164705882353,91.4,0,33.561,14.29935,181.4,104,104.6875,0,107.8125,104.6875,78.4313725490196,